Regional Weather Roundup
Issued by NWS

Home | Current Version | Previous Version | Text Only | Print | Product List | Glossary Off
Versions: 1 2 3 4 5 6 7 8 9 10 11 12 13 14 15 16 17 18 19 20 21 22 23 24 25 26 27 28 29 30 31 32 33 34 35 36 37 38 39 40 41 42 43 44 45 46 47 48 49 50

000
ASUS43 KIND 220200
RWRIN

WEATHER ROUNDUP FOR INDIANA
NATIONAL WEATHER SERVICE INDIANAPOLIS IN
1000 PM EDT THU SEP 21 2017

NOTE: "FAIR" INDICATES FEW OR NO CLOUDS BELOW 12,000 FEET WITH NO
SIGNIFICANT WEATHER AND/OR OBSTRUCTIONS TO VISIBILITY.

* - STATION DOES NOT REPORT WEATHER SUCH AS PRECIPITATION OR FOG.

+ - STATION NOT QUALITY CONTROLLED BY THE NATIONAL WEATHER SERVICE.
    USE DATA WITH CAUTION...ESPECIALLY DEWPOINT AND RELATIVE
    HUMIDITY OBSERVATIONS.

INZ001>003-010>013-019-020-220300-
NORTHWEST INDIANA

CITY           SKY/WX    TMP DP  RH WIND       PRES   REMARKS
GARY /AIRPORT/ PTCLDY    73  70  88 CALM      30.02R

$$

LMZ046-743>745-220300-
SOUTHERN LAKE MICHIGAN

STATION/POSITION TIME  TEMP    WIND        PRES    WAVE
                       AIR SEA DIR/SP/G            HT
                 (UTC) (F)     (DEG/KT/KT) (MB)    (FT)
BURNS HARBOR     0140   83     180/  5/  7 1016.9R
MICHIGAN CITY    0130   82     120/  6/  6   N/A
5NW MICH CITY    0150   76 71  160/  4/  4   N/A     0

$$

INZ004-005-014>016-021>024-220300-
NORTH CENTRAL INDIANA

CITY           SKY/WX    TMP DP  RH WIND       PRES   REMARKS
GOSHEN         CLEAR     75  70  84 SE3       30.05S
SOUTH BEND     CLEAR     77  72  84 CALM      30.04S

$$

INZ006>009-017-018-025>027-220300-
NORTHEAST INDIANA

CITY           SKY/WX    TMP DP  RH WIND       PRES   REMARKS
FORT WAYNE     PTCLDY    75  69  81 CALM      30.07R
KENDALLVILLE + CLEAR     72  71  97 CALM      30.08R

$$

INZ028-029-035-036-043>045-051>053-220300-
WEST CENTRAL INDIANA

CITY           SKY/WX    TMP DP  RH WIND       PRES   REMARKS
LAFAYETTE      CLEAR     74  71  91 CALM      30.03R
TERRE HAUTE    CLEAR     75  68  78 CALM      30.04R

$$

INZ030>032-037>040-046>048-054>057-064-065-220300-
CENTRAL INDIANA

CITY           SKY/WX    TMP DP  RH WIND       PRES   REMARKS
INDIANAPOLIS   PTCLDY    81  66  60 S3        30.06R
-EAGLE CREEK   CLEAR     77  70  79 CALM      30.05R
KOKOMO +       CLEAR     73  71  93 CALM      30.06S
MT COMFORT *+  CLEAR     72  68  88 CALM      30.07R
SHELBYVILLE    CLEAR     73  67  81 E3        30.05R

$$

INZ033-034-041-042-049-050-058-059-220300-
EAST CENTRAL INDIANA

CITY           SKY/WX    TMP DP  RH WIND       PRES   REMARKS
MUNCIE         CLEAR     73  70  90 CALM      30.07R
RICHMOND +     CLEAR     70  68  94 SE5       30.10R

$$

INZ060-061-067>069-081>083-085>088-220300-
SOUTHWEST INDIANA

CITY           SKY/WX    TMP DP  RH WIND       PRES   REMARKS
EVANSVILLE     CLEAR     79  70  74 CALM      30.03R
HUNTINGBURG +  CLEAR     76  71  85 CALM      30.04R

$$

INZ062-063-066-070>080-084-089>092-220300-
SOUTH CENTRAL AND SOUTHEAST INDIANA

CITY           SKY/WX    TMP DP  RH WIND       PRES   REMARKS
BLOOMINGTON    CLEAR     73  67  81 CALM      30.06R
MADISON *+     CLEAR     72  70  94 CALM      30.09R
SEYMOUR +      CLEAR     72  68  88 CALM      30.05R

$$




USA.gov is the U.S. government's official web portal to all federal, state and local government web resources and services.